Home > Weather > Schwyz > Past weeks

Flag for Switzerland Past Weather in Schwyz, Schwyz, Switzerland — Yesterday and Last 2 Weeks

Now
62 °F

Cool.


Feels Like: 62 °F
Forecast: 57 / 80 °F
Wind: No wind

Location: Altdorf

Current Time: Jul 28, 2016 at 1:08:50 AM

Latest Report: Jul 28, 2016 at 12:00 AM


Visibility: N/A

Pressure: 30.11 "Hg (28.34 "Hg at 515m altitude)

Humidity: 94%

Dew Point: 60 °F

Location of SchwyzLocation

Past Weather in Schwyz — Graph

°F

Schwyz Temperature Yesterday

Maximum temperature yesterday: 75 °F (at 12:00 PM)
Minimum temperature yesterday: 61 °F (at 6:00 AM)
Average temperature yesterday: 67 °F

High & Low Weather Summary for the Past Weeks

 TemperatureHumidityPressure
High88 °F (Jul 20, 6:00 PM)96% (Jul 23, 5:00 AM)30.38 "Hg (Jul 23, 5:00 AM)
Low45 °F (Jul 16, 5:00 AM)35% (Jul 20, 6:00 PM)29.89 "Hg (Jul 20, 6:00 PM)
Average65 °F78%30.10 "Hg
* Reported Jul 12 11:00 PM — Jul 27 11:00 PM, Schwyz, Weather by CustomWeather, © 2016

Note: Actual official high and low records may vary slightly from our data, if they occured in-between our weather recording intervals... More about our weather records

Advertising

Schwyz Weather History for the Previous 24 Hours

Scroll right to see more
 ConditionsComfort  
Time TempWeatherWind HumidityBarometerVisibility
11:00 PM
Wed, Jul 27
63 °FOvercast.1 mph92%30.12 "Hg9 mi
10:00 PM64 °FMild.5 mph91%30.11 "HgN/A
9:00 PM64 °FMild.3 mph93%30.11 "HgN/A
8:00 PM65 °FRain. Low clouds.5 mph89%30.08 "Hg2 mi
7:00 PM66 °FMild.3 mph88%30.07 "HgN/A
6:00 PM70 °FMild.2 mph86%30.03 "HgN/A
5:00 PM72 °FLight rain. Overcast.2 mph84%30.01 "Hg1 mi
4:00 PM71 °FMild.1 mph82%30.03 "HgN/A
3:00 PM71 °FMild.2 mph85%30.03 "HgN/A
2:00 PM72 °FPartly sunny.2 mph75%30.03 "Hg14 mi
1:00 PM69 °FMild.6 mph87%30.05 "HgN/A
12:00 PM75 °FMild.12 mph67%30.02 "HgN/A
11:00 AM72 °FScattered clouds.7 mph80%30.05 "Hg12 mi
10:00 AM71 °FMild.3 mph79%30.06 "HgN/A
9:00 AM68 °FMild.2 mph77%30.07 "HgN/A
8:00 AM64 °FScattered clouds.3 mph84%30.09 "Hg12 mi
7:00 AM62 °FCool.2 mph93%30.09 "HgN/A
6:00 AM61 °FCool.No wind93%30.09 "HgN/A
5:00 AM63 °FPassing clouds.1 mph89%30.07 "Hg12 mi
4:00 AM65 °FMild.3 mph83%30.06 "HgN/A
3:00 AM65 °FMild.3 mph85%30.07 "HgN/A
2:00 AM65 °FMild.3 mph90%30.09 "HgN/A
1:00 AM66 °FMild.2 mph90%30.09 "HgN/A
Weather by CustomWeather, © 2016

See weather overviewHow to use our weather pages